Tracking 31027 objects as of 19-Jul-2025
HD Live streaming from Space Station
objects crossing your sky now

STARLINK-32415

Track STARLINK-32415 now!
10-day predictions
STARLINK-32415 is classified as:


NORAD ID: 61861
Int'l Code: 2024-202S
Perigee: 489.2 km
Apogee: 491.1 km
Inclination: 43.0 °
Period: 94.3 minutes
Semi major axis: 6861 km
RCS: Unknown
Launch date: November 7, 2024
Source: United States (US)
Launch site: AIR FORCE EASTERN TEST RANGE (AFETR)
Your satellite tracking list
STARLINK-3349
Track 1 satellite(s)




NASA's NSSDC Master Catalog

Two Line Element Set (TLE):
1 61861U 24202S   25199.19646997  .00001090  00000-0  49113-4 0  9991
2 61861  43.0020 122.3906 0001403 258.6613 101.4081 15.27582348 39467
Source of the keplerian elements: AFSPC